{"data":{"norad_id":59249,"epoch":"2026-09-19T00:53:09.125088Z","epoch_age_seconds":285150,"freshness":"STALE","line1":"1 59249U 24049U   26262.03691117 -.00002209  00000+0 -70794-4 0  9999","line2":"2 59249  43.0037 131.8091 0001394 266.9269  93.1423 15.27571645141964","mean_motion":15.27571645,"eccentricity":0.0001394,"inclination_deg":43.0037,"raan_deg":131.8091,"arg_perigee_deg":266.9269,"mean_anomaly_deg":93.1423,"bstar":-7.0794e-5,"rev_number":14196,"period_min":94.267264302356,"perigee_km":482.11766120008,"apogee_km":484.03056685867,"semimajor_km":6861.2111140294,"source":"CELESTRAK","updated_at":"2026-09-21T09:00:34.078496Z"}}